Temp
51 45 40 43 46 45 43 39 38 41 48 45 45 45 51 52 49 51 52 52 52 54 60 59 59 56 55 53 54 55 55 55 54 54 54 53 54 54 56 58 60 61 62 62
45 40 44 47 46 44 41 38 36 44 46 44 43 43 48 50 49 51 53 53 54 54 57 58 56 52 52 53 52 52 54 53 53 52 52 52 52 53 54 57 58 61 61 61
40 44 49 46 41 40 38 39 37 40 44 43 40 41 42 50 49 51 52 57 57 58 60 59 55 52 50 50 50 51 51 52 51 52 52 52 52 53 54 56 58 58 60 60
42 47 45 42 39 42 37 43 43 41 38 32 39 30 38 43 48 49 51 54 57 57 57 55 53 51 50 49 48 50 50 51 52 51 51 51 52 52 54 56 55 55 55 56
38 41 42 40 42 45 38 44 42 41 36 32 32 30 35 38 41 47 51 54 55 53 53 54 54 52 48 47 46 47 48 48 48 48 49 49 49 52 54 53 52 52 52 53
40 44 43 43 46 48 48 44 40 37 35 25 33 32 30 38 43 46 49 51 52 52 52 51 49 47 45 44 44 44 45 45 45 45 45 46 48 51 52 51 50 49 49 48
37 38 42 45 42 45 44 39 27 25 22 24 32 31 41 45 49 48 50 51 51 49 48 46 44 43 43 42 42 43 43 43 43 43 43 45 45 47 53 51 50 49 47 44
31 25 39 45 42 39 40 40 30 23 23 24 32 27 35 43 47 47 47 47 48 48 47 46 43 41 41 42 41 41 42 42 41 41 41 41 43 43 44 47 49 49 48 46
30 30 41 43 45 47 38 36 42 31 19 21 27 31 40 43 45 47 47 46 47 47 46 45 43 42 42 41 41 41 41 41 40 40 39 39 39 40 40 40 41 40 41 42
38 27 38 42 45 45 42 45 33 29 18 14 25 27 32 41 45 44 46 44 46 46 45 44 43 43 42 42 41 40 40 40 39 38 37 38 37 37 37 37 37 37 37 37
43 36 33 40 37 37 38 38 39 39 32 23 19 27 37 40 43 43 43 45 45 45 44 43 43 43 43 42 41 40 39 39 38 37 37 36 35 35 35 35 35 35 35 35
41 37 28 32 38 40 43 39 42 32 25 26 26 33 43 43 42 43 42 46 44 43 44 43 42 42 41 41 40 39 38 37 37 37 36 35 34 33 33 33 33 33 33 34
42 35 29 28 33 37 35 38 40 38 32 31 26 32 45 43 41 43 42 45 45 44 46 46 42 40 40 40 40 39 39 39 36 35 34 33 32 31 31 31 31 32 32 32
43 36 31 28 31 35 32 36 41 38 31 33 33 37 43 40 42 41 44 44 44 44 46 44 41 41 41 41 40 39 38 37 36 35 33 32 32 31 30 30 30 31 31 30
40 31 33 34 33 33 34 36 38 36 37 32 37 35 43 47 45 45 47 45 44 45 46 46 44 45 44 40 39 38 39 36 36 34 32 33 32 30 29 29 30 30 30 30
36 31 33 31 34 35 33 36 36 37 38 38 39 38 49 51 47 42 45 44 43 45 46 46 45 45 44 43 43 40 39 37 35 34 34 33 31 30 30 29 29 29 29 29
33 30 24 15 32 32 28 33 36 38 41 38 33 41 49 47 48 45 43 44 45 45 45 45 46 47 46 45 43 39 39 35 32 34 34 31 31 30 29 29 28 28 27 27
31 29 26 15 24 22 35 36 41 40 42 43 44 46 48 49 50 44 45 45 44 44 45 46 44 43 41 40 39 39 36 33 32 32 33 31 31 30 28 27 27 27 27 26
36 30 21 21 17 30 35 35 35 34 35 43 43 46 47 48 41 46 47 43 43 43 43 42 39 37 35 34 33 34 33 31 30 31 31 30 30 28 26 26 25 25 25 25
35 34 29 19 18 22 30 38 39 41 29 40 42 42 41 39 34 43 41 38 41 41 39 36 34 31 30 30 28 30 31 29 29 30 30 29 28 28 26 26 25 26 26 27
29 29 25 26 25 29 35 37 39 25 32 37 37 39 36 36 38 41 38 36 35 36 35 33 30 29 28 25 27 27 28 27 29 29 27 26 26 26 26 25 25 25 25 26
28 28 26 27 22 19 36 34 34 37 35 35 35 35 36 37 36 36 36 35 33 32 31 30 27 28 27 26 26 27 27 26 25 25 25 24 23 26 25 24 23 24 24 24
24 29 26 30 30 35 33 35 36 36 36 34 34 34 35 33 32 33 32 31 29 28 26 26 25 25 25 22 22 23 24 23 23 23 24 22 24 24 24 23 22 23 24 23
30 33 29 32 33 35 34 33 34 34 34 34 32 31 32 31 30 28 27 27 26 26 24 22 21 21 22 20 22 21 21 20 17 19 20 21 22 21 23 25 24 24 22 21
27 28 28 28 32 33 33 32 33 32 31 30 27 26 26 26 25 24 24 24 23 22 21 20 19 20 19 18 17 15 17 15 16 16 16 18 20 21 20 22 22 23 24 24
28 29 28 29 33 34 32 32 31 29 29 26 25 24 24 24 23 22 20 20 19 18 18 17 16 15 16 13 12 11 11 12 11 15 16 16 17 18 19 19 20 27 26 28
MSLP
1016.62 1017.59 1017.81 1018.16 1017.78 1017.91 1017.74 1017.87 1017.87 1017.55 1017.11 1017.14 1017.09 1017.16 1016.34 1016.30 1016.80 1016.82 1016.79 1016.53 1016.39 1015.98 1014.97 1014.97 1015.03 1015.20 1015.56 1015.89 1016.07 1016.26 1016.41 1016.54 1016.79 1017.02 1017.18 1017.24 1017.19 1016.99 1016.85 1016.71 1016.66 1016.72 1016.77 1016.83
1017.33 1017.31 1017.76 1017.87 1018.12 1018.29 1018.36 1018.60 1018.59 1018.24 1017.78 1017.90 1017.67 1017.30 1016.66 1016.20 1016.27 1016.04 1015.94 1015.89 1015.53 1015.41 1014.81 1014.68 1015.10 1015.46 1015.57 1015.75 1016.16 1016.45 1016.57 1016.68 1016.92 1017.10 1017.18 1017.22 1017.16 1016.96 1016.84 1016.58 1016.55 1016.53 1016.46 1016.38
1017.12 1017.31 1017.28 1018.00 1018.43 1018.53 1018.69 1019.07 1019.17 1019.05 1018.52 1018.33 1018.05 1016.75 1016.27 1015.33 1015.30 1015.35 1015.17 1014.84 1014.62 1014.31 1014.25 1014.36 1014.74 1015.17 1015.66 1016.20 1016.24 1016.41 1016.60 1016.65 1016.78 1016.96 1017.04 1017.08 1017.01 1016.81 1016.64 1016.34 1016.37 1016.60 1016.49 1016.37
1017.49 1017.60 1017.44 1017.77 1018.24 1018.66 1019.03 1018.85 1019.24 1019.54 1019.77 1019.60 1018.92 1016.97 1016.06 1015.58 1015.18 1015.35 1014.95 1014.30 1013.75 1013.70 1013.74 1014.11 1014.50 1015.04 1015.50 1015.83 1016.40 1016.67 1016.76 1016.79 1016.78 1016.92 1017.19 1017.25 1017.14 1017.10 1016.81 1016.68 1016.83 1016.93 1016.84 1016.70
1017.58 1017.71 1017.57 1017.78 1018.04 1018.60 1018.86 1018.72 1019.25 1019.77 1020.20 1020.43 1019.94 1019.82 1016.15 1015.75 1015.49 1015.01 1014.05 1013.79 1013.60 1013.62 1013.96 1014.06 1014.31 1014.52 1014.96 1015.56 1016.27 1016.69 1016.87 1017.06 1017.06 1017.11 1017.19 1017.13 1016.99 1016.92 1016.90 1016.99 1017.21 1017.30 1017.24 1017.13
1017.85 1017.66 1017.52 1017.58 1017.67 1018.05 1018.49 1018.86 1019.79 1020.30 1021.11 1021.11 1020.44 1020.25 1016.30 1015.74 1014.90 1014.44 1013.80 1013.72 1013.94 1014.04 1014.08 1014.20 1014.39 1014.67 1015.20 1015.63 1016.19 1016.71 1017.02 1017.14 1017.24 1017.14 1017.00 1016.95 1016.98 1016.90 1016.95 1017.13 1017.34 1017.52 1017.51 1017.42
1018.13 1017.77 1017.48 1017.41 1017.82 1018.00 1018.45 1019.11 1020.49 1021.75 1022.32 1021.22 1020.43 1020.22 1015.68 1015.47 1014.53 1014.31 1014.09 1013.77 1014.23 1014.26 1014.41 1014.54 1014.90 1015.43 1015.84 1016.25 1016.47 1016.87 1017.19 1017.37 1017.37 1017.19 1017.05 1017.04 1016.99 1016.87 1016.78 1016.90 1017.10 1017.44 1017.59 1017.58
1018.30 1018.31 1017.61 1017.45 1017.57 1017.67 1018.23 1018.71 1019.68 1020.93 1021.93 1021.53 1020.92 1019.31 1016.30 1015.19 1014.39 1014.00 1014.27 1014.12 1014.32 1014.58 1014.66 1014.92 1015.31 1015.71 1016.03 1016.48 1016.91 1017.14 1017.28 1017.39 1017.42 1017.32 1017.34 1017.36 1017.30 1017.25 1017.15 1017.05 1017.07 1017.25 1017.51 1017.70
1018.11 1018.19 1017.53 1017.28 1017.02 1017.18 1018.23 1018.30 1018.97 1020.52 1022.27 1022.14 1020.50 1018.55 1016.59 1015.22 1014.63 1014.03 1013.95 1014.42 1014.58 1014.66 1014.72 1014.96 1015.45 1015.97 1016.33 1016.76 1017.00 1017.21 1017.41 1017.44 1017.42 1017.45 1017.57 1017.60 1017.62 1017.57 1017.54 1017.46 1017.51 1017.64 1017.76 1017.93
1017.56 1017.91 1017.39 1017.07 1017.09 1017.09 1017.07 1017.49 1019.01 1020.09 1021.34 1021.30 1019.66 1018.45 1016.49 1015.36 1014.56 1014.45 1014.29 1014.64 1014.65 1014.72 1014.88 1015.04 1015.36 1015.69 1016.09 1016.41 1016.75 1017.13 1017.31 1017.32 1017.35 1017.50 1017.67 1017.71 1017.83 1017.83 1017.83 1017.83 1017.89 1018.00 1018.19 1018.37
1017.35 1017.89 1018.07 1017.50 1017.16 1016.92 1017.28 1017.36 1017.84 1018.47 1019.53 1019.67 1019.19 1017.01 1015.25 1014.90 1014.80 1014.78 1014.84 1014.89 1014.81 1014.80 1014.86 1015.01 1015.37 1015.68 1015.94 1016.15 1016.44 1016.64 1016.87 1017.03 1017.17 1017.33 1017.54 1017.74 1017.89 1017.95 1017.97 1018.01 1018.01 1018.11 1018.19 1018.33
1016.98 1017.53 1017.72 1017.33 1016.96 1016.82 1016.75 1016.74 1017.08 1017.91 1019.07 1019.32 1018.67 1014.92 1014.07 1014.24 1014.40 1014.43 1014.76 1014.81 1014.72 1014.68 1014.68 1014.68 1015.04 1015.42 1015.70 1015.81 1016.19 1016.49 1016.66 1016.70 1016.65 1016.86 1017.21 1017.41 1017.63 1017.88 1018.03 1017.94 1017.82 1017.82 1017.81 1017.91
1016.92 1017.18 1017.62 1017.63 1017.60 1017.09 1016.83 1016.92 1016.97 1017.51 1018.12 1017.93 1017.79 1014.04 1013.53 1013.87 1014.20 1014.38 1014.68 1014.40 1014.58 1014.72 1014.40 1014.41 1014.62 1014.91 1015.03 1015.18 1015.32 1015.55 1015.60 1015.61 1016.22 1016.59 1016.81 1017.05 1017.30 1017.55 1017.72 1017.84 1017.92 1018.08 1018.19 1018.28
1017.33 1017.31 1017.08 1016.80 1016.36 1016.09 1016.60 1016.45 1016.47 1016.82 1017.15 1015.29 1016.08 1013.44 1013.63 1013.98 1014.03 1014.22 1014.29 1014.10 1014.24 1014.42 1014.10 1014.12 1014.40 1014.48 1014.38 1014.41 1014.70 1014.75 1014.80 1014.92 1015.25 1015.69 1016.16 1016.48 1016.75 1017.03 1017.34 1017.57 1017.81 1017.80 1017.90 1018.14
1017.92 1017.96 1017.82 1017.58 1016.86 1016.47 1016.36 1016.06 1016.08 1015.99 1015.12 1015.79 1014.13 1014.08 1012.33 1012.74 1013.32 1013.48 1013.30 1013.72 1014.18 1013.98 1013.71 1013.62 1013.69 1013.59 1013.36 1013.54 1013.69 1013.76 1013.75 1014.04 1014.48 1015.03 1015.33 1015.42 1015.89 1016.41 1016.84 1017.43 1017.77 1018.08 1018.31 1018.40
1018.57 1018.56 1018.25 1017.80 1017.50 1017.10 1016.64 1015.97 1015.40 1015.39 1014.95 1014.85 1013.84 1013.74 1011.46 1011.48 1012.23 1012.75 1013.14 1013.60 1013.54 1013.23 1013.36 1013.11 1013.02 1013.01 1012.83 1012.77 1012.81 1012.89 1013.08 1013.15 1013.75 1014.23 1014.27 1014.76 1015.34 1015.84 1016.30 1016.85 1017.21 1017.50 1017.77 1017.94
1018.81 1018.72 1019.25 1018.65 1017.83 1017.33 1016.22 1013.72 1014.58 1014.11 1013.85 1013.97 1013.78 1011.96 1011.20 1010.86 1011.51 1012.15 1012.76 1012.92 1012.89 1013.05 1012.93 1012.84 1012.76 1012.56 1012.42 1012.55 1012.74 1012.88 1012.61 1012.79 1013.14 1013.33 1013.59 1014.10 1014.53 1014.89 1015.33 1015.90 1016.44 1016.65 1016.94 1017.41
1018.83 1019.05 1019.28 1018.76 1018.34 1016.96 1013.62 1012.97 1012.63 1012.84 1012.52 1012.49 1012.22 1011.36 1011.04 1011.14 1010.93 1011.87 1012.45 1012.61 1012.84 1012.96 1012.86 1012.64 1012.76 1012.80 1012.76 1012.72 1012.72 1012.52 1012.37 1012.35 1012.46 1012.59 1012.86 1013.08 1013.51 1014.02 1014.68 1015.32 1015.85 1016.41 1016.84 1017.23
1018.26 1018.87 1019.06 1018.57 1018.33 1016.17 1013.71 1012.95 1013.02 1012.89 1012.19 1011.29 1011.68 1011.57 1011.21 1011.12 1011.87 1010.71 1011.79 1012.27 1012.70 1012.79 1012.91 1013.01 1013.21 1013.24 1013.11 1013.17 1012.85 1012.40 1012.08 1012.34 1012.55 1012.51 1012.64 1013.00 1013.45 1013.80 1014.47 1015.17 1015.67 1016.22 1016.80 1017.24
1018.17 1018.63 1018.78 1018.02 1017.52 1016.46 1013.39 1012.45 1012.12 1012.09 1012.06 1011.13 1011.01 1011.14 1011.33 1011.93 1012.55 1011.24 1012.17 1012.64 1012.73 1012.69 1013.04 1013.29 1013.36 1013.44 1013.34 1013.20 1013.05 1012.71 1012.29 1012.12 1012.11 1012.28 1012.42 1012.69 1012.91 1013.23 1013.71 1014.16 1014.85 1015.41 1015.91 1016.30
1017.97 1018.04 1017.72 1017.11 1016.58 1015.11 1012.70 1012.65 1012.27 1012.64 1011.95 1010.98 1011.12 1011.41 1011.79 1012.38 1012.58 1012.26 1012.36 1012.59 1012.83 1013.17 1013.40 1013.66 1013.86 1013.81 1013.48 1013.20 1012.85 1012.49 1012.41 1012.19 1011.86 1011.91 1011.79 1012.05 1012.46 1012.74 1013.11 1013.67 1014.31 1014.90 1015.36 1016.02
1017.30 1017.04 1016.36 1016.35 1015.33 1014.03 1012.57 1012.83 1012.31 1011.68 1011.55 1011.74 1011.89 1012.27 1012.60 1013.00 1013.26 1013.25 1013.12 1013.18 1013.57 1013.86 1014.10 1014.28 1014.28 1013.94 1013.68 1013.57 1013.31 1012.67 1012.06 1011.76 1011.58 1011.78 1011.82 1011.51 1011.83 1012.41 1013.09 1013.36 1014.09 1014.50 1014.82 1015.34
1017.09 1015.73 1015.28 1014.48 1012.89 1011.94 1011.40 1011.47 1011.50 1011.92 1012.36 1012.65 1013.06 1013.23 1013.55 1013.94 1014.09 1014.03 1014.10 1014.19 1014.26 1014.54 1014.70 1014.77 1014.81 1014.35 1013.95 1013.64 1013.47 1013.07 1012.36 1012.05 1011.81 1011.81 1011.65 1011.81 1011.79 1011.89 1011.72 1012.38 1013.60 1014.57 1014.72 1014.66
1016.24 1015.30 1015.10 1013.88 1011.86 1011.94 1012.40 1012.24 1012.43 1012.59 1012.86 1013.24 1013.61 1014.03 1014.24 1014.69 1014.90 1014.97 1015.17 1015.21 1015.13 1015.09 1015.11 1015.16 1014.96 1014.54 1014.02 1013.80 1013.74 1013.31 1012.78 1012.58 1011.93 1011.91 1012.32 1012.34 1012.02 1012.49 1011.97 1012.02 1012.51 1012.83 1013.72 1014.53
1016.24 1015.65 1014.66 1013.38 1012.64 1012.80 1012.61 1012.74 1013.11 1013.39 1013.75 1014.00 1014.19 1014.57 1014.91 1015.21 1015.37 1015.56 1015.71 1015.85 1015.88 1015.86 1015.79 1015.68 1015.29 1014.91 1014.56 1014.27 1013.80 1013.59 1013.27 1013.08 1012.83 1012.20 1012.18 1012.61 1012.80 1012.57 1012.33 1012.44 1012.06 1012.38 1012.89 1013.42
1015.37 1014.49 1014.73 1013.41 1013.22 1013.39 1013.69 1013.71 1013.68 1014.10 1014.37 1014.70 1015.16 1015.39 1015.73 1016.19 1016.50 1016.67 1016.65 1016.63 1016.58 1016.35 1016.18 1015.96 1015.91 1015.62 1015.11 1014.75 1014.52 1014.22 1013.76 1013.49 1013.17 1013.04 1012.55 1012.31 1012.47 1012.78 1012.85 1012.72 1012.79 1012.80 1012.99 1012.95
Wind_Speed
5 4 9 9 9 1 2 2 4 2 2 1 6 7 15 5 4 9 10 9 9 12 11 8 7 4 5 4 5 6 6 4 2 0 1 1 3 2 3 3 6 6 6 7
4 10 7 5 3 3 1 3 3 5 2 1 5 9 11 8 7 9 9 10 12 7 10 8 6 6 7 5 5 4 4 3 2 1 2 2 2 3 4 3 3 4 5 6
4 3 6 7 3 4 1 4 3 4 5 1 5 10 7 8 4 7 9 13 10 15 15 11 9 9 4 6 7 6 5 3 2 0 1 2 2 3 2 2 1 2 4 3
4 2 4 4 4 6 5 6 5 2 2 5 3 10 4 3 8 5 10 13 16 13 10 5 6 6 9 8 5 4 4 3 2 1 2 3 2 2 1 2 2 2 4 4
6 5 5 4 4 7 5 5 7 5 3 3 1 4 5 2 5 11 12 14 12 8 8 9 9 9 6 8 6 4 3 2 1 1 2 3 2 2 2 1 2 2 3 4
3 1 4 6 4 10 5 5 5 5 3 5 8 6 5 5 6 6 6 6 8 9 8 8 5 4 5 6 6 5 4 2 1 1 1 2 4 4 3 3 2 1 0 2
0 3 1 2 5 2 2 6 2 2 1 8 3 6 13 9 10 6 10 9 7 7 6 7 5 3 4 5 5 4 4 4 2 1 1 1 3 4 4 4 3 3 2 1
6 6 8 5 6 6 6 6 5 7 5 4 1 9 7 5 9 9 7 8 7 8 5 6 5 4 5 6 5 3 5 5 4 2 2 2 2 1 1 2 2 2 2 1
5 5 3 5 5 9 4 11 5 5 2 2 5 7 9 6 10 10 9 7 8 8 7 4 3 5 5 4 6 7 6 5 4 4 3 3 2 3 3 2 1 1 2 1
4 2 1 2 1 1 6 7 4 1 2 4 6 5 7 7 9 6 9 8 8 7 6 4 4 6 5 6 6 5 6 7 5 5 4 3 4 3 2 2 3 2 2 2
5 1 2 5 6 9 3 4 4 4 5 5 2 7 8 7 6 7 6 6 7 8 7 5 5 5 6 5 6 7 7 7 6 6 5 5 4 4 3 3 4 4 4 5
7 4 5 7 0 2 6 5 9 6 3 3 2 17 5 8 6 6 2 7 6 5 6 5 5 6 7 8 7 7 7 8 8 7 6 6 5 5 5 5 6 6 6 5
6 5 6 1 2 3 5 5 6 4 3 15 7 14 6 4 3 5 5 8 4 5 7 7 5 7 8 9 8 10 10 10 6 6 7 6 7 7 6 6 5 4 4 4
5 4 6 10 5 5 6 8 16 12 9 18 14 27 16 4 7 4 8 9 8 8 9 8 7 9 9 9 10 9 8 8 9 9 8 8 8 7 7 6 6 6 6 6
5 4 3 11 2 2 1 5 14 18 22 9 19 16 21 17 11 12 13 7 7 11 11 9 9 10 9 8 8 8 10 8 8 9 10 13 8 7 6 6 5 4 4 4
2 1 3 3 5 8 13 13 10 12 17 18 24 22 25 21 7 5 8 6 10 13 10 11 11 10 11 10 10 9 10 11 9 11 14 9 9 8 9 8 7 7 7 7
2 4 3 6 6 7 7 24 18 19 15 9 15 25 23 22 15 7 6 9 11 9 10 10 12 11 10 8 6 8 10 7 10 13 12 10 11 12 12 10 10 11 10 7
4 4 3 5 5 7 8 3 12 19 20 20 19 22 20 17 15 2 6 8 8 9 11 11 7 7 6 6 7 8 6 7 10 12 12 12 13 13 11 11 11 9 7 7
13 4 2 3 4 13 17 5 8 9 13 20 18 19 17 15 6 19 4 2 5 7 6 5 3 4 7 8 8 8 7 6 6 10 10 9 10 11 10 10 9 7 7 6
12 10 5 2 4 6 6 3 3 7 9 7 11 13 11 2 5 12 4 2 6 6 2 6 7 4 6 6 7 7 8 6 8 7 7 7 9 11 12 12 11 8 9 10
5 8 16 13 7 6 10 7 6 6 8 3 2 5 3 4 6 7 7 6 2 3 7 7 6 8 7 6 5 6 7 8 7 5 6 7 9 10 10 10 8 10 10 9
8 7 7 9 4 10 9 4 8 6 1 3 1 1 2 5 9 9 10 9 6 6 6 6 8 10 7 6 6 8 8 5 4 5 6 7 8 7 7 10 8 9 11 12
4 7 5 9 8 3 6 3 3 3 2 2 4 4 5 8 8 8 8 7 8 7 6 5 6 11 8 4 3 10 6 3 3 4 6 6 7 8 11 12 10 8 9 10
6 4 5 2 4 7 3 3 2 3 3 4 3 3 5 7 7 7 6 6 8 7 7 5 7 9 11 5 6 6 7 5 3 3 3 3 7 7 8 8 8 9 10 9
6 2 4 8 3 5 4 3 3 2 4 3 1 1 2 4 6 6 6 7 7 8 7 7 8 10 10 8 6 6 6 3 3 1 2 3 3 5 6 6 7 8 9 10
8 9 7 9 7 5 5 5 3 2 3 4 5 6 3 2 5 5 7 5 7 9 9 9 8 9 10 8 7 7 6 4 3 3 3 3 3 4 4 4 5 12 12 18
Wind_Direction
155 152 201 203 198 178 146 101 189 278 283 206 221 234 261 256 219 253 249 253 244 248 261 255 262 216 178 190 174 177 173 178 151 140 225 275 242 279 270 248 242 237 236 222
146 224 208 191 183 206 170 161 231 290 297 182 283 254 256 262 226 219 244 248 247 245 254 254 221 209 195 180 179 176 190 173 177 173 218 231 237 257 251 250 272 263 242 224
188 174 178 161 165 158 180 196 173 229 328 290 320 269 231 259 214 237 245 249 249 238 248 247 211 215 184 212 192 188 186 178 154 31 323 303 276 288 288 259 125 17 353 346
241 199 127 140 185 143 226 184 164 161 54 250 39 289 266 286 276 225 258 251 250 250 248 258 228 203 204 209 182 182 175 171 146 25 232 222 220 250 300 33 39 21 14 11
214 175 161 171 183 158 222 155 172 167 195 344 213 295 272 6 294 269 240 252 263 261 249 249 235 222 194 155 172 174 155 131 87 174 226 220 222 228 144 102 105 50 30 24
194 295 157 198 153 176 161 98 58 48 95 271 188 185 212 189 206 268 262 258 274 296 291 282 288 176 162 150 156 160 166 172 198 171 100 170 193 201 165 154 165 174 44 18
162 237 4 114 97 78 143 122 56 6 349 237 325 195 265 304 276 226 276 297 312 289 292 296 263 217 165 174 162 170 184 213 224 194 127 191 211 227 198 174 173 181 186 203
185 304 166 179 172 168 188 162 160 199 206 265 34 235 260 231 282 281 270 291 307 316 301 293 261 206 181 187 191 195 201 220 226 237 250 286 273 237 213 192 175 177 192 166
148 263 195 176 170 148 181 219 159 96 28 52 231 287 289 295 277 300 300 337 325 320 319 280 214 207 202 206 209 212 220 237 231 229 230 248 256 227 216 193 147 156 131 152
175 0 290 212 84 259 166 159 128 63 241 265 261 258 236 295 291 319 312 332 311 310 315 275 233 210 204 208 220 220 223 230 231 224 224 218 229 226 207 187 189 161 130 126
122 238 268 132 198 179 153 202 215 164 168 192 275 255 213 228 244 270 296 302 295 314 321 287 251 233 225 223 216 220 219 221 218 212 207 205 211 207 189 184 177 174 164 164
198 177 197 210 243 291 235 228 205 190 248 247 229 260 186 210 225 190 221 297 293 296 323 316 272 248 237 230 227 230 226 224 213 204 203 208 198 194 198 200 197 187 181 177
170 208 215 284 350 337 209 206 210 131 95 233 229 261 9 176 231 216 272 272 268 320 317 294 277 243 235 234 229 227 224 228 206 202 202 203 202 199 209 210 204 199 183 181
33 216 213 220 198 139 177 202 213 202 213 242 225 262 260 259 255 234 258 260 274 276 274 266 260 247 243 235 231 231 231 208 204 200 201 207 207 199 202 200 201 195 189 184
164 232 226 254 301 52 155 212 215 216 235 223 251 243 262 257 246 239 246 268 289 278 275 278 271 272 270 258 241 231 234 213 201 201 203 216 195 188 185 195 197 199 195 185
106 40 307 262 253 269 265 257 243 238 242 243 251 264 270 275 250 234 256 253 251 258 271 266 266 265 267 262 253 242 234 225 192 209 221 206 188 189 194 190 185 180 185 183
177 141 48 261 6 270 234 233 231 237 237 210 237 248 261 275 273 258 231 234 253 270 265 266 267 267 271 286 284 256 245 203 200 215 215 203 197 197 195 187 185 193 188 172
190 146 143 246 21 244 250 337 226 221 234 227 245 257 258 271 288 143 217 251 254 258 268 275 297 312 316 328 311 286 258 213 211 219 217 208 200 202 190 187 195 191 179 178
209 155 274 162 190 284 288 192 171 167 250 232 238 260 263 269 348 286 181 193 266 272 279 278 303 305 310 316 313 292 271 237 220 231 228 211 203 197 185 191 183 168 162 165
194 209 199 126 181 276 256 255 175 109 264 140 187 233 248 47 292 284 142 225 265 274 311 325 324 296 298 316 314 307 285 239 234 232 226 200 193 195 194 186 178 177 178 175
184 192 212 231 229 258 242 192 181 110 258 36 145 247 258 211 217 286 303 296 314 316 330 333 318 296 293 301 304 286 282 261 253 234 200 183 191 195 189 176 175 170 173 168
202 196 204 213 192 249 172 19 157 207 77 148 93 343 277 282 298 299 303 307 334 313 319 323 315 309 301 305 313 294 277 254 224 207 202 182 175 181 178 171 170 176 171 171
261 206 209 192 213 349 195 171 147 139 175 174 185 241 271 273 265 282 290 316 320 324 317 309 302 308 309 283 273 291 288 264 230 212 196 193 182 183 174 172 171 180 183 177
237 187 232 13 241 223 199 233 269 220 246 279 279 231 232 267 300 292 299 310 315 323 324 320 312 310 308 309 305 273 297 265 204 216 216 205 190 195 183 178 180 179 183 188
213 131 223 269 327 286 301 198 192 247 264 259 341 127 256 284 289 291 302 308 305 312 320 325 322 315 306 312 307 315 313 305 276 194 164 206 221 200 182 195 184 188 192 187
187 207 201 244 212 209 208 176 154 263 300 5 340 326 301 269 282 296 298 303 312 320 325 328 325 319 321 321 317 322 323 312 250 244 202 186 172 188 195 175 184 208 189 189